{"data":{"norad_id":47536,"epoch":"2026-05-25T05:26:23.665056Z","epoch_age_seconds":62292,"freshness":"FRESH","line1":"1 47536U 21007E   26145.22666279 -.00000023  00000+0  10332-3 0  9990","line2":"2 47536  63.4020 201.1506 0174079   0.5721 359.5473 13.45445643261127","mean_motion":13.45445643,"eccentricity":0.0174079,"inclination_deg":63.402,"raan_deg":201.1506,"arg_perigee_deg":0.5721,"mean_anomaly_deg":359.5473,"bstar":0.00010332,"rev_number":26112,"period_min":107.02773519629,"perigee_km":959.07394112591,"apogee_km":1219.0504549652,"semimajor_km":7467.1991980456,"source":"CELESTRAK","updated_at":"2026-05-25T13:37:56.475778Z"}}